User: anonymous   Login
Location: Cosy Dell
(34.2789°N, 117.4537°W)
Time: 00:42:04
(UTC+00:00)
Language:

Cosmos 2221 - Orbit

View from above orbital plane
View from above orbital plane
View from above satellite
View from above satellite

Ground track
Ground track

The orbit data is extracted from the following two-line orbital elements,

1 22236U 92080A   21164.40377736  .00000177  00000-0  16588-4 0  9992
2 22236  82.5072 122.5664 0015953 198.3164 161.7481 14.88059913522940
Epoch (UTC): 13 June 2021 09:41:26
Eccentricity: 0.0015953
inclination: 82.5072°
perigee height: 593 km
apogee height: 615 km
right ascension of ascending node: 122.5664°
argument of perigee: 198.3164°
revolutions per day: 14.88059913
mean anomaly at epoch: 161.7481°
orbit number at epoch: 52294

The dashed part of the orbit path shows where the satellite is in the earth's shadow,  

DLR